LROP Weather Reports


Display with metric or nautical units.
time (UTC)temp
F
wind
direction
speed
MPH
gust
MPH
rain 1hr
in
rain 24hr
in
rain mn
in
humidity
%
barometer
mb
20260507150301 75 80 10.0 0.0 0.00 0.00 0.00 41 1014.0
20260507144802 75 80 11.0 0.0 0.00 0.00 0.00 41 1014.0
20260507143304 75 80 11.0 0.0 0.00 0.00 0.00 41 1014.0
20260507141802 75 110 7.0 0.0 0.00 0.00 0.00 39 1014.0
20260507140302 75 110 7.0 0.0 0.00 0.00 0.00 39 1014.0
20260507134802 79 110 8.0 0.0 0.00 0.00 0.00 34 1015.0
20260507133302 79 110 8.0 0.0 0.00 0.00 0.00 34 1015.0
20260507131802 77 110 7.0 0.0 0.00 0.00 0.00 34 1015.0
20260507130302 77 110 7.0 0.0 0.00 0.00 0.00 34 1015.0
20260507124802 77 100 8.0 0.0 0.00 0.00 0.00 34 1015.0
20260507123340 77 100 8.0 0.0 0.00 0.00 0.00 34 1015.0
20260507121802 77 90 9.0 0.0 0.00 0.00 0.00 36 1015.0
20260507120302 77 90 9.0 0.0 0.00 0.00 0.00 36 1015.0
20260507114802 77 110 8.0 0.0 0.00 0.00 0.00 36 1015.0
20260507113315 75 80 9.0 0.0 0.00 0.00 0.00 36 1016.0
20260507111802 75 80 9.0 0.0 0.00 0.00 0.00 36 1016.0
20260507110302 75 80 9.0 0.0 0.00 0.00 0.00 36 1016.0
20260507104801 75 70 8.0 0.0 0.00 0.00 0.00 39 1016.0
20260507103302 75 70 8.0 0.0 0.00 0.00 0.00 39 1016.0
20260507101801 73 70 8.0 0.0 0.00 0.00 0.00 44 1016.0
20260507100302 73 70 8.0 0.0 0.00 0.00 0.00 44 1016.0
20260507094802 72 80 7.0 0.0 0.00 0.00 0.00 38 1016.0
20260507093302 72 80 7.0 0.0 0.00 0.00 0.00 38 1016.0
20260507091803 70 80 7.0 0.0 0.00 0.00 0.00 46 1016.0
20260507090302 70 80 7.0 0.0 0.00 0.00 0.00 46 1016.0
20260507084802 68 90 9.0 0.0 0.00 0.00 0.00 49 1016.0
20260507083302 68 90 9.0 0.0 0.00 0.00 0.00 49 1016.0
20260507081802 66 90 9.0 0.0 0.00 0.00 0.00 52 1016.0
20260507080303 66 90 9.0 0.0 0.00 0.00 0.00 52 1016.0
20260507074802 64 90 7.0 0.0 0.00 0.00 0.00 56 1016.0
20260507073302 64 90 7.0 0.0 0.00 0.00 0.00 56 1016.0
20260507071802 63 90 7.0 0.0 0.00 0.00 0.00 64 1016.0
20260507070302 63 90 7.0 0.0 0.00 0.00 0.00 64 1016.0
20260507064802 59 90 7.0 0.0 0.00 0.00 0.00 68 1016.0
20260507063302 59 90 7.0 0.0 0.00 0.00 0.00 68 1016.0
20260507061814 57 80 7.0 0.0 0.00 0.00 0.00 72 1016.0
20260507060302 57 80 7.0 0.0 0.00 0.00 0.00 72 1016.0
20260507054802 54 70 7.0 0.0 0.00 0.00 0.00 82 1016.0
20260507053309 54 70 7.0 0.0 0.00 0.00 0.00 82 1016.0
20260507051802 52 70 8.0 0.0 0.00 0.00 0.00 82 1016.0
20260507050302 52 70 8.0 0.0 0.00 0.00 0.00 82 1016.0
20260507044802 50 60 7.0 0.0 0.00 0.00 0.00 88 1016.0
20260507043302 50 60 7.0 0.0 0.00 0.00 0.00 88 1016.0
20260507041802 50 40 6.0 0.0 0.00 0.00 0.00 88 1016.0
20260507040302 50 40 6.0 0.0 0.00 0.00 0.00 88 1016.0
20260507034802 50 40 5.0 0.0 0.00 0.00 0.00 88 1016.0
20260507033301 50 40 5.0 0.0 0.00 0.00 0.00 88 1016.0
20260507031802 48 30 3.0 0.0 0.00 0.00 0.00 87 1016.0
20260507030302 48 40 5.0 0.0 0.00 0.00 0.00 87 1016.0
20260507024802 48 70 5.0 0.0 0.00 0.00 0.00 87 1016.0
20260507023301 48 70 5.0 0.0 0.00 0.00 0.00 87 1016.0
20260507021802 48 60 7.0 0.0 0.00 0.00 0.00 94 1016.0
20260507020302 48 60 7.0 0.0 0.00 0.00 0.00 94 1016.0
20260507014802 48 60 5.0 0.0 0.00 0.00 0.00 87 1016.0
20260507013301 48 60 5.0 0.0 0.00 0.00 0.00 87 1016.0
20260507011802 50 60 7.0 0.0 0.00 0.00 0.00 88 1016.0
20260507010302 50 60 7.0 0.0 0.00 0.00 0.00 88 1016.0
20260507004801 52 50 10.0 0.0 0.00 0.00 0.00 82 1015.0
20260507003302 52 50 10.0 0.0 0.00 0.00 0.00 82 1015.0
20260507001802 52 30 8.0 0.0 0.00 0.00 0.00 82 1015.0
20260507000302 52 30 8.0 0.0 0.00 0.00 0.00 82 1015.0
20260506234802 54 30 7.0 0.0 0.00 0.00 0.00 77 1015.0
20260506233302 54 30 7.0 0.0 0.00 0.00 0.00 77 1015.0
20260506231802 54 30 7.0 0.0 0.00 0.00 0.00 77 1016.0
20260506230302 54 30 7.0 0.0 0.00 0.00 0.00 77 1016.0
20260506224801 54 40 7.0 0.0 0.00 0.00 0.00 77 1016.0
20260506223302 54 40 7.0 0.0 0.00 0.00 0.00 77 1016.0
20260506221801 54 70 7.0 0.0 0.00 0.00 0.00 77 1015.0
20260506220301 54 70 7.0 0.0 0.00 0.00 0.00 77 1015.0
20260506214818 61 100 7.0 0.0 0.00 0.00 0.00 48 1015.0
20260506213302 61 100 7.0 0.0 0.00 0.00 0.00 48 1015.0
20260506211802 61 130 8.0 0.0 0.00 0.00 0.00 55 1015.0
20260506210301 61 130 8.0 0.0 0.00 0.00 0.00 55 1015.0
20260506204802 61 130 8.0 0.0 0.00 0.00 0.00 55 1015.0
20260506203302 61 130 8.0 0.0 0.00 0.00 0.00 55 1015.0
20260506201802 61 120 7.0 0.0 0.00 0.00 0.00 59 1015.0
20260506200302 61 120 7.0 0.0 0.00 0.00 0.00 59 1015.0
20260506194821 63 120 8.0 0.0 0.00 0.00 0.00 56 1015.0
20260506193325 63 120 8.0 0.0 0.00 0.00 0.00 56 1015.0
20260506191802 64 110 9.0 0.0 0.00 0.00 0.00 52 1014.0
20260506190302 64 110 9.0 0.0 0.00 0.00 0.00 52 1014.0
20260506184807 64 100 10.0 0.0 0.00 0.00 0.00 56 1014.0
20260506183302 64 100 10.0 0.0 0.00 0.00 0.00 56 1014.0
20260506181802 66 100 8.0 0.0 0.00 0.00 0.00 52 1014.0
20260506180302 66 100 8.0 0.0 0.00 0.00 0.00 52 1014.0
20260506174802 66 100 8.0 0.0 0.00 0.00 0.00 52 1014.0
20260506173302 66 100 8.0 0.0 0.00 0.00 0.00 52 1014.0
20260506171802 72 110 10.0 0.0 0.00 0.00 0.00 41 1014.0
20260506170301 72 110 10.0 0.0 0.00 0.00 0.00 41 1014.0
20260506164802 73 110 11.0 0.0 0.00 0.00 0.00 36 1013.0
20260506163302 73 110 11.0 0.0 0.00 0.00 0.00 36 1013.0
20260506161802 75 100 10.0 0.0 0.00 0.00 0.00 34 1013.0
20260506160302 75 100 10.0 0.0 0.00 0.00 0.00 34 1013.0
20260506154802 75 100 11.0 0.0 0.00 0.00 0.00 36 1013.0
20260506153302 75 100 11.0 0.0 0.00 0.00 0.00 36 1013.0
20260506151801 77 100 11.0 0.0 0.00 0.00 0.00 34 1014.0